Weather History for Carmi, IL

Change the Weather History Date:

Friday, September 27, 2013

  Actual Average (KEVV) Record (KEVV)
Temperature  
Mean Temperature 66 °F 64 °F  
Max Temperature 82 °F 77 °F 94 °F (1998)
Min Temperature 50 °F 52 °F 34 °F (1942)
Degree Days  
Heating Degree Days 0 4  
Month to date heating degree days 33  
Since 1 July heating degree days 34  
Cooling Degree Days 1 3  
Month to date cooling degree days 159  
Year to date cooling degree days 1358  
Growing Degree Days 16 (Base 50)    
Moisture  
Dew Point 56 °F    
Average Humidity 74    
Maximum Humidity 96    
Minimum Humidity 35    
Precipitation  
Precipitation 0.00 in 0.10 in 1.65 in (1945)
Month to date precipitation 2.73  
Year to date precipitation 33.65  
Snow  
Snow 0.00 in 0.00 in - ()
Month to date snowfall 0.0  
Since 1 July snowfall 0.0  
Since 1 September snowfall 0.0  
Snow Depth -    
Sea Level Pressure  
Sea Level Pressure 30.08 in    
Wind  
Wind Speed 2 mph (East)    
Max Wind Speed 10 mph    
Max Gust Speed 17 mph    
Visibility 8 miles    
Events Fog    
T = Trace of Precipitation, MM = Missing Value Source: NWS Daily Summary

Daily Weather History Graph

Daily Weather History Graph

Search for Another Location

Airport:

Trip Planner

Search our weather history database for the weather conditions in past years. The results will help you decide how hot, cold, wet, or windy it might be!

Date:

Astronomy

Sep. 27, 2013 Rise Set
Actual Time 6:44 AM CDT 6:41 PM CDT
Civil Twilight 6:18 AM CDT 7:07 PM CDT
Nautical Twilight 5:47 AM CDT 7:38 PM CDT
Astronomical Twilight 5:16 AM CDT 8:08 PM CDT
Moon No Moon Rise 2:14 PM CDT (9/27)
Length of Visible Light 12h 48m
Length of Day
11h 56m
Last Quarter, 45% of the Moon is Illuminated
Sep 27
Last Quarter
Oct 4
New
Oct 11
First Quarter
Oct 18
Full
Oct 26
Last Quarter

Hourly Weather History & Observations

Time (CDT) Temp. Heat Index Dew Point Humidity Pressure Visibility Wind Dir Wind Speed Gust Speed Precip Events Conditions
12:15 AM 57.2 °F - 55.0 °F 92% 30.05 in 10.0 mi Calm Calm - N/A   Clear
12:35 AM 57.4 °F - 54.9 °F 91% 30.05 in 10.0 mi Calm Calm - N/A   Clear
12:55 AM 56.5 °F - 54.1 °F 92% 30.05 in 7.0 mi Calm Calm - N/A   Clear
1:15 AM 55.9 °F - 54.0 °F 93% 30.05 in 5.0 mi Calm Calm - N/A   Clear
1:35 AM 55.0 °F - 53.2 °F 94% 30.06 in 5.0 mi Calm Calm - N/A   Clear
1:55 AM 55.6 °F - 54.1 °F 95% 30.06 in 5.0 mi Calm Calm - N/A   Clear
2:15 AM 54.5 °F - 52.9 °F 94% 30.06 in 7.0 mi Calm Calm - N/A   Clear
2:35 AM 54.1 °F - 52.7 °F 95% 30.06 in 7.0 mi Calm Calm - N/A   Clear
2:55 AM 53.8 °F - 52.3 °F 95% 30.06 in 2.0 mi Calm Calm - N/A   Clear
3:15 AM 53.8 °F - 52.3 °F 95% 30.06 in 0.5 mi Calm Calm - N/A Fog Fog
3:35 AM 52.7 °F - 51.4 °F 95% 30.07 in 2.5 mi Calm Calm - N/A   Clear
3:55 AM 51.3 °F - 50.0 °F 95% 30.07 in 2.0 mi Calm Calm - N/A   Clear
4:15 AM 51.8 °F - 50.5 °F 95% 30.07 in 1.8 mi Calm Calm - N/A   Mist
4:35 AM 51.6 °F - 50.4 °F 95% 30.07 in 2.0 mi North 3.5 mph - N/A   Clear
4:55 AM 52.3 °F - 51.1 °F 95% 30.08 in 5.0 mi Calm Calm - N/A   Clear
5:15 AM 52.0 °F - 50.7 °F 95% 30.08 in 5.0 mi Calm Calm - N/A   Clear
5:35 AM 52.2 °F - 50.9 °F 95% 30.09 in 2.5 mi Calm Calm - N/A   Clear
5:55 AM 52.0 °F - 50.5 °F 95% 30.10 in 7.0 mi Calm Calm - N/A   Clear
6:15 AM 51.8 °F - 50.4 °F 95% 30.10 in 4.0 mi Calm Calm - N/A   Clear
6:35 AM 51.1 °F - 49.8 °F 95% 30.11 in 0.5 mi Calm Calm - N/A Fog Fog
6:55 AM 50.9 °F - 49.5 °F 95% 30.12 in 0.5 mi Calm Calm - N/A Fog Fog
7:15 AM 51.4 °F - 50.2 °F 95% 30.13 in 4.0 mi Calm Calm - N/A   Clear
7:35 AM 52.5 °F - 51.3 °F 95% 30.14 in 4.0 mi Calm Calm - N/A   Clear
7:55 AM 55.9 °F - 54.7 °F 96% 30.14 in 4.0 mi Calm Calm - N/A   Clear
8:15 AM 59.2 °F - 57.9 °F 96% 30.14 in 5.0 mi Calm Calm - N/A   Clear
8:35 AM 62.8 °F - 59.2 °F 88% 30.14 in 7.0 mi Calm Calm - N/A   Clear
8:55 AM 65.1 °F - 60.1 °F 84% 30.14 in 7.0 mi Calm Calm - N/A   Clear
9:15 AM 66.9 °F - 61.3 °F 82% 30.15 in 10.0 mi Calm Calm - N/A   Clear
9:35 AM 69.1 °F - 62.2 °F 79% 30.15 in 10.0 mi Calm Calm - N/A   Clear
9:55 AM 71.2 °F - 61.3 °F 71% 30.15 in 10.0 mi Calm Calm - N/A   Clear
10:15 AM 72.9 °F - 60.1 °F 64% 30.15 in 10.0 mi Calm Calm - N/A   Clear
10:35 AM 75.4 °F - 60.4 °F 60% 30.15 in 10.0 mi Calm Calm - N/A   Clear
10:55 AM 77.0 °F - 60.6 °F 57% 30.14 in 10.0 mi East 4.6 mph - N/A   Clear
11:15 AM 77.9 °F - 60.4 °F 55% 30.14 in 10.0 mi East 8.1 mph - N/A   Clear
11:35 AM 78.4 °F - 60.8 °F 55% 30.14 in 10.0 mi East 6.9 mph - N/A   Clear
11:55 AM 79.3 °F - 59.4 °F 50% 30.13 in 10.0 mi East 8.1 mph - N/A   Clear
12:15 PM 79.3 °F - 58.3 °F 48% 30.13 in 10.0 mi ENE 8.1 mph - N/A   Clear
12:35 PM 80.4 °F 81.0 °F 59.2 °F 48% 30.12 in 10.0 mi East 8.1 mph - N/A   Clear
12:55 PM 80.4 °F 80.7 °F 57.0 °F 45% 30.11 in 10.0 mi ENE 10.4 mph - N/A   Clear
1:15 PM 81.1 °F 81.2 °F 57.2 °F 44% 30.10 in 10.0 mi ENE 8.1 mph - N/A   Clear
1:35 PM 81.7 °F 81.4 °F 56.3 °F 42% 30.09 in 10.0 mi East 9.2 mph - N/A   Clear
1:55 PM 81.9 °F 81.4 °F 55.8 °F 41% 30.08 in 10.0 mi ESE 8.1 mph - N/A   Clear
2:15 PM 82.4 °F 81.8 °F 55.9 °F 40% 30.07 in 10.0 mi ESE 8.1 mph 17.3 mph N/A   Clear
2:35 PM 82.2 °F 81.5 °F 54.9 °F 39% 30.07 in 10.0 mi East 4.6 mph - N/A   Clear
2:55 PM 82.4 °F 81.9 °F 56.3 °F 41% 30.06 in 10.0 mi East 9.2 mph - N/A   Clear
3:15 PM 82.8 °F 81.7 °F 54.1 °F 37% 30.06 in 10.0 mi East 4.6 mph - N/A   Clear
3:35 PM 82.6 °F - 52.2 °F 35% 30.05 in 10.0 mi East 8.1 mph - N/A   Clear
3:55 PM 82.8 °F 81.6 °F 53.2 °F 36% 30.05 in 10.0 mi East 8.1 mph - N/A   Clear
4:15 PM 82.6 °F 81.6 °F 54.1 °F 37% 30.05 in 10.0 mi East 5.8 mph - N/A   Clear
4:35 PM 82.4 °F 81.7 °F 55.0 °F 39% 30.05 in 10.0 mi East 9.2 mph - N/A   Clear
4:55 PM 81.9 °F 81.1 °F 53.6 °F 38% 30.04 in 10.0 mi East 8.1 mph - N/A   Clear
5:15 PM 81.0 °F 80.7 °F 55.4 °F 41% 30.05 in 10.0 mi East 6.9 mph - N/A   Clear
5:35 PM 79.9 °F - 57.7 °F 47% 30.05 in 10.0 mi East 5.8 mph - N/A   Clear
5:55 PM 77.7 °F - 59.0 °F 52% 30.05 in 10.0 mi East 6.9 mph - N/A   Clear
6:15 PM 74.5 °F - 61.2 °F 63% 30.05 in 10.0 mi East 6.9 mph - N/A   Clear
6:35 PM 71.4 °F - 61.0 °F 70% 30.05 in 10.0 mi East 6.9 mph - N/A   Clear
6:55 PM 68.9 °F - 59.9 °F 73% 30.05 in 10.0 mi East 5.8 mph - N/A   Clear
7:15 PM 66.7 °F - 59.4 °F 77% 30.05 in 10.0 mi East 6.9 mph - N/A   Clear
7:35 PM 64.0 °F - 58.5 °F 82% 30.05 in 10.0 mi East 6.9 mph - N/A   Clear
7:55 PM 65.5 °F - 58.1 °F 77% 30.06 in 10.0 mi Calm Calm - N/A   Clear
8:15 PM 65.5 °F - 57.4 °F 75% 30.06 in 10.0 mi ESE 3.5 mph - N/A   Clear
8:35 PM 63.3 °F - 57.4 °F 81% 30.07 in 10.0 mi ESE 3.5 mph - N/A   Clear
8:55 PM 63.7 °F - 56.8 °F 78% 30.07 in 7.0 mi Calm Calm - N/A   Clear
9:15 PM 63.7 °F - 56.3 °F 77% 30.07 in 10.0 mi Calm Calm - N/A   Clear
9:35 PM 62.4 °F - 56.3 °F 80% 30.07 in 10.0 mi East 3.5 mph - N/A   Clear
9:55 PM 62.4 °F - 57.0 °F 82% 30.07 in 10.0 mi Calm Calm - N/A   Clear
10:15 PM 61.3 °F - 55.9 °F 82% 30.07 in 10.0 mi Calm Calm - N/A   Clear
10:35 PM 59.9 °F - 55.6 °F 86% 30.07 in 10.0 mi Calm Calm - N/A   Clear
10:55 PM 58.8 °F - 54.7 °F 86% 30.07 in 10.0 mi Calm Calm - N/A   Clear
11:15 PM 58.3 °F - 55.4 °F 90% 30.07 in 10.0 mi Calm Calm - N/A   Clear
11:35 PM 58.6 °F - 55.2 °F 88% 30.07 in 10.0 mi Calm Calm - N/A   Clear
11:55 PM 58.6 °F - 55.6 °F 90% 30.07 in 10.0 mi Calm Calm - N/A   Clear